Flag for U.S.A. Weather past 2 weeks in Madison, Wisconsin, U.S.A.

Now
37 °F

Overcast.


Feels Like: 28 °F
Forecast: 30 / 49 °F
Wind: 15 mph from Southwest

Location: Dane County Regional-Truax Field

Current Time: Mar 29, 2015 at 3:57:35 PM

Latest Report: Mar 29, 2015 at 2:53 PM


Visibility: 9 mi

Pressure: 29.70 "Hg

Humidity: 86%

Dew point: 33 °F

Location of MadisonLocation

Historic Weather in Madison — Graph

°F

Madison temperature yesterday

Maximum temperature yesterday: 37 °F (at 2:53 PM)
Minimum temperature yesterday: 15 °F (at 6:53 AM)
Average temperature yesterday: 29 °F

Past Weeks' High & Low Weather Summary

 TemperatureHumidityPressure
High71 °F (Mar 16, 4:53 PM)92% (Mar 25, 2:53 AM)30.41 "Hg (Mar 25, 2:53 AM)
Low15 °F (Mar 28, 6:53 AM)20% (Mar 21, 3:53 PM)29.70 "Hg (Mar 16, 3:53 PM)
Average37 °F55%30.14 "Hg
* Reported Mar 14 1:53 PM — Mar 29 1:53 PM, Madison, Weather by CustomWeather, © 2015

Note: Actual official high and low records may vary slightly from our data, if they occured in-between our weather recording intervals... More about our weather records

Advertising

Madison weather history for previous 24 hours

 ConditionsComfort  
Time TempWeatherWind HumidityBarometerVisibility
1:53 PM
Sun, Mar 29
35 °FOvercast.14 mph82%29.75 "Hg10 mi
12:53 PM34 °FOvercast.15 mph82%29.79 "Hg10 mi
12:03 PM34 °FOvercast.17 mph82%29.79 "Hg10 mi
11:53 AM34 °FOvercast.22 mph82%29.82 "Hg10 mi
10:53 AM33 °FDrizzle. Fog.17 mph85%29.84 "Hg4 mi
9:53 AM33 °FLight freezing rain. Mostly cloudy.24 mph75%29.87 "Hg6 mi
9:00 AM34 °FLight freezing rain. Overcast.24 mph61%29.88 "Hg9 mi
8:53 AM33 °FSleet. Mostly cloudy.18 mph63%29.92 "Hg10 mi
7:53 AM32 °FMore clouds than sun.16 mph59%29.98 "Hg10 mi
6:53 AM31 °FPassing clouds.14 mph59%30.01 "Hg10 mi
5:53 AM31 °FPartly cloudy.12 mph59%30.06 "Hg10 mi
4:53 AM32 °FClear.15 mph54%30.06 "Hg10 mi
3:53 AM32 °FClear.13 mph52%30.09 "Hg10 mi
2:53 AM32 °FClear.13 mph50%30.11 "Hg10 mi
1:53 AM32 °FClear.9 mph47%30.15 "Hg10 mi
12:53 AM32 °FClear.10 mph50%30.18 "Hg10 mi
11:53 PM
Sat, Mar 28
31 °FClear.8 mph54%30.21 "Hg10 mi
10:53 PM32 °FPassing clouds.6 mph50%30.23 "Hg10 mi
9:53 PM33 °FPassing clouds.7 mph45%30.25 "Hg10 mi
8:53 PM34 °FPassing clouds.7 mph42%30.24 "Hg10 mi
7:53 PM35 °FPassing clouds.8 mph38%30.25 "Hg10 mi
6:53 PM36 °FPassing clouds.5 mph37%30.26 "Hg10 mi
5:53 PM37 °FSunny.8 mph34%30.27 "Hg10 mi
4:53 PM37 °FSunny.9 mph31%30.28 "Hg10 mi
3:53 PM37 °FSunny.8 mph31%30.29 "Hg10 mi
Weather by CustomWeather, © 2015

See weather overviewHow to use our weather pages